Wind_Speed
76 73 65 56 57 56 56 56 56 53 50 46 48 44 38 34 33 35 41 38 37 38 36 35 34 34 33 31 30 28 28 29 29 31 29 31 31 27 27 24 24 27 28 34 37 39 41 43 44
79 81 77 72 56 57 65 65 62 55 51 50 53 48 43 41 40 40 46 44 45 43 43 43 41 39 37 35 34 31 31 32 34 34 33 34 33 31 29 29 28 31 32 34 37 39 41 45 48
82 82 77 77 70 61 73 74 63 59 55 52 56 54 46 47 47 46 51 42 45 49 46 46 43 42 40 39 37 36 35 35 36 36 34 35 34 34 32 31 32 34 35 37 39 40 43 47 49
87 85 86 84 78 71 77 74 68 61 59 57 57 58 52 49 46 47 45 44 47 48 51 50 49 47 46 44 40 39 38 38 38 38 37 37 36 34 33 34 34 38 38 40 41 42 45 47 49
87 88 86 89 76 75 79 80 71 68 66 63 66 67 58 55 52 51 48 52 56 51 52 54 53 53 50 49 46 42 39 41 38 39 39 38 37 35 35 36 37 39 42 42 44 46 46 49 52
87 91 88 85 87 76 83 81 80 80 72 69 74 79 67 60 56 56 54 59 61 56 54 56 56 54 53 50 48 45 42 42 43 40 39 37 38 36 37 39 41 43 45 45 46 48 48 51 53
96 95 90 96 96 83 84 83 81 82 83 80 80 86 76 66 59 59 65 65 63 59 59 57 55 53 52 51 50 48 46 45 45 40 38 39 38 38 38 41 45 47 48 50 49 49 51 54 56
118 104 98 86 92 90 92 94 89 84 81 80 83 85 82 76 68 68 69 73 66 65 62 58 59 57 55 52 50 50 46 46 43 41 41 41 39 41 42 44 48 50 51 52 52 52 52 55 56
115 110 105 106 101 94 98 100 97 93 89 90 88 85 81 79 76 76 77 72 74 71 68 67 65 64 60 58 56 53 51 49 47 47 46 44 44 46 47 47 50 52 53 55 54 55 56 57 58
116 112 111 111 113 113 103 104 103 104 98 96 97 85 94 84 83 81 85 82 79 73 74 73 72 69 66 64 61 59 57 55 53 52 50 48 49 50 51 51 53 56 56 57 56 56 59 61 54
105 105 110 109 112 115 115 107 110 112 105 104 102 98 101 96 85 86 89 86 84 77 78 75 76 74 73 70 67 65 63 62 60 58 57 54 54 54 55 56 58 61 59 59 58 60 60 57 49
91 92 97 98 104 107 114 112 108 116 109 105 107 106 103 93 84 87 90 88 87 83 78 81 80 78 78 76 72 70 68 68 68 65 63 61 59 59 59 61 62 60 61 62 62 61 59 55 56
88 88 89 89 93 96 102 102 105 107 108 112 110 103 104 99 89 93 95 92 90 93 84 80 79 83 78 79 79 76 75 74 72 70 70 66 63 63 61 62 60 63 62 62 62 60 58 55 59
90 89 88 88 88 89 92 95 99 97 106 111 113 114 106 102 99 100 97 97 96 98 93 82 83 80 82 75 73 73 78 78 72 76 73 68 67 63 64 65 64 65 66 64 63 63 60 60 60
88 86 88 86 89 90 95 94 94 98 106 105 108 106 112 99 102 103 101 103 99 102 100 92 90 90 84 82 84 75 75 76 75 77 73 72 69 68 65 68 69 67 66 67 65 60 55 60 57
84 86 88 89 93 93 102 88 91 96 104 100 99 104 110 106 100 103 104 100 99 103 102 101 99 96 95 88 84 77 74 79 81 80 78 76 67 66 65 69 70 67 58 64 61 58 60 58 60
84 83 85 87 94 95 103 87 93 99 99 97 98 98 97 102 102 99 106 106 101 101 108 106 99 101 103 101 90 85 83 73 72 70 74 75 73 75 75 68 70 62 61 60 63 56 56 52 51
91 90 91 90 92 97 100 89 96 98 97 94 98 96 92 94 98 102 110 107 101 99 108 109 107 104 105 107 101 93 90 85 81 75 72 67 73 78 77 62 55 56 57 57 57 52 54 54 63
91 93 94 95 94 100 96 91 93 92 95 95 96 94 93 96 97 97 102 103 105 103 110 110 111 108 107 105 105 105 98 95 92 88 85 75 65 67 64 57 56 52 51 53 51 54 49 55 62
91 93 92 92 96 104 101 98 94 90 93 95 98 96 98 99 98 97 96 95 96 99 110 112 112 112 109 105 108 106 105 105 100 97 92 80 71 66 64 62 55 55 52 52 51 49 56 56 63
81 85 93 96 101 106 99 98 94 90 95 101 101 97 96 96 97 98 96 94 92 95 102 111 113 115 112 110 112 110 106 103 103 94 93 80 82 77 74 76 61 54 53 52 45 49 50 52 48
67 79 87 93 100 102 99 97 89 91 96 101 101 101 99 100 101 100 96 93 91 91 96 101 107 113 114 112 112 112 108 100 100 97 92 81 96 91 86 75 68 68 63 50 46 46 39 33 46
56 72 81 86 91 93 92 99 88 97 98 99 100 102 101 102 102 101 97 94 92 92 94 97 101 106 110 107 108 111 106 105 101 93 91 90 94 86 87 80 68 63 59 49 47 48 39 34 39
56 61 70 76 82 84 80 95 89 95 98 101 101 100 101 100 100 101 101 99 97 96 97 95 97 100 102 101 100 105 107 106 100 96 97 92 85 78 73 67 63 67 58 51 53 48 50 35 29
46 58 61 63 73 71 85 96 77 88 94 97 100 97 96 99 101 101 101 101 101 102 97 98 98 99 98 99 98 99 100 100 102 100 95 93 91 88 79 77 71 64 68 63 56 53 48 46 33
44 49 58 61 67 72 81 84 79 84 85 86 92 92 89 91 100 102 101 103 101 100 99 99 101 103 101 101 99 98 98 99 97 102 102 97 92 86 82 82 72 68 68 72 57 54 56 56 41
42 44 51 57 60 64 73 79 83 82 84 85 88 87 88 90 95 99 99 100 101 101 99 99 100 102 104 101 101 98 98 95 95 97 93 92 90 87 85 81 76 75 69 66 61 57 57 53 49
46 47 50 52 51 60 64 74 78 83 84 85 83 84 84 85 89 94 96 98 98 100 102 100 99 100 104 105 103 100 99 98 96 94 92 89 87 88 86 82 75 77 72 70 60 61 65 61 64
41 40 48 53 51 50 54 64 75 80 83 85 85 86 79 82 85 89 93 94 95 95 96 99 102 103 103 104 105 104 101 99 98 96 93 90 89 87 87 84 80 77 81 75 68 69 67 60 67
37 38 45 48 50 49 51 53 69 72 81 83 85 85 83 83 86 89 89 90 89 90 92 94 97 101 103 105 105 105 103 101 100 98 96 94 91 90 89 88 83 76 80 80 75 77 81 73 76
Wind_Direction
237 240 235 237 242 229 230 230 229 224 226 226 231 237 231 230 227 229 237 224 224 222 220 222 223 226 233 236 241 251 261 266 268 277 283 288 293 290 284 293 300 306 315 320 323 327 330 330 331
242 249 251 242 235 244 232 231 234 225 228 230 234 233 227 224 224 220 236 232 227 224 225 223 224 230 233 238 244 248 258 264 268 273 280 284 287 290 286 292 293 303 310 317 320 325 327 327 329
244 245 247 246 240 244 233 236 233 231 229 231 239 236 229 230 233 229 234 236 235 232 227 230 231 233 237 239 244 255 262 263 267 273 277 283 285 287 286 288 294 299 308 312 316 322 325 326 328
242 243 245 247 246 242 240 240 237 236 234 236 243 242 235 229 237 239 239 243 237 238 239 235 235 235 236 241 248 251 257 258 263 269 274 279 282 282 286 288 295 300 304 308 314 318 320 323 328
238 240 241 240 247 249 240 241 239 239 239 239 249 246 239 230 230 234 238 242 238 236 239 242 240 240 242 244 248 250 253 257 259 265 269 274 275 278 283 290 295 299 302 307 310 313 315 321 325
233 236 240 241 245 244 239 243 243 244 241 237 240 245 239 231 230 234 236 237 240 234 235 241 242 245 246 247 249 248 251 253 260 262 265 268 272 276 281 288 295 297 298 303 307 310 313 316 323
230 230 235 238 243 243 242 245 242 244 244 239 241 244 238 232 231 234 237 242 240 245 236 241 244 247 250 250 249 250 252 254 259 260 264 268 269 274 283 288 293 295 296 301 304 307 310 314 320
237 230 227 231 240 239 240 244 242 239 244 243 240 242 244 236 235 240 240 244 239 245 244 242 245 248 249 253 252 251 252 253 256 260 263 265 269 274 283 287 290 294 297 298 301 304 308 312 316
241 233 235 240 238 234 239 243 243 243 242 245 249 242 242 245 243 240 241 240 240 242 245 244 243 246 248 250 253 254 254 257 259 260 264 268 271 274 277 283 286 290 292 296 301 303 306 310 314
243 243 245 242 239 243 240 240 242 241 239 243 247 242 243 244 246 243 242 241 242 242 246 246 245 247 250 252 254 255 256 257 259 260 261 264 267 271 275 280 284 287 292 293 298 301 304 309 314
245 244 244 246 244 241 243 245 237 240 241 243 244 243 247 248 243 243 245 243 243 238 243 246 247 244 246 249 252 254 257 259 259 261 263 264 268 272 275 278 283 286 288 292 296 299 304 309 310
243 243 243 245 246 246 243 246 247 246 235 245 245 248 248 251 246 236 242 244 243 240 239 246 248 248 249 250 251 253 255 257 260 262 264 265 268 270 275 278 281 285 286 289 294 297 305 306 308
241 242 242 242 244 244 245 248 249 251 250 240 244 245 249 247 240 236 237 240 240 243 238 241 248 251 252 253 251 251 253 256 258 259 261 265 267 270 273 276 277 281 286 289 293 297 303 303 308
241 240 242 243 244 244 245 244 245 248 249 246 240 241 245 247 244 238 237 238 241 244 242 239 242 245 246 248 251 254 253 254 256 258 259 262 265 269 271 272 275 279 284 288 293 299 303 306 310
242 242 243 244 244 244 243 240 242 243 246 246 245 243 243 242 241 242 242 238 239 241 243 239 240 246 245 242 246 251 256 257 258 260 264 266 268 271 272 272 276 284 288 290 293 297 302 304 307
241 241 241 242 242 241 243 240 243 244 247 248 246 244 245 243 244 243 245 240 239 242 243 242 237 241 247 247 245 244 248 255 260 264 265 266 268 269 272 276 279 284 283 289 292 299 303 308 307
243 242 241 241 242 241 244 238 241 244 245 248 249 247 245 244 242 242 243 241 236 242 243 244 240 238 244 247 246 248 250 247 258 260 262 264 261 266 271 275 280 279 281 282 290 295 302 304 308
243 241 242 240 243 242 243 240 241 243 245 245 248 249 247 246 243 241 241 243 240 241 243 245 243 240 242 248 246 246 252 250 248 256 258 261 264 266 269 272 271 276 279 279 288 296 296 296 304
246 244 242 242 243 245 243 241 240 243 246 247 247 248 249 248 246 244 243 242 239 240 239 245 246 243 243 245 247 246 247 253 252 254 259 262 263 268 268 266 270 275 277 280 289 297 292 299 305
246 245 246 244 245 244 243 241 240 240 244 245 245 244 244 246 247 247 246 244 241 243 242 243 245 246 243 243 246 247 247 249 254 253 255 260 258 261 262 263 270 271 276 283 289 289 291 297 301
245 245 245 244 245 245 244 243 242 243 244 245 246 244 244 246 247 247 247 245 243 241 243 245 244 245 246 246 245 247 250 250 253 258 258 252 253 255 258 263 263 268 276 283 283 287 295 298 301
247 245 242 243 243 246 246 244 243 243 244 246 244 245 244 244 246 246 246 246 245 243 243 245 245 245 246 248 249 249 247 253 253 253 254 250 258 262 260 263 261 264 274 275 283 283 292 299 300
251 246 243 243 243 244 247 246 242 243 242 244 246 245 245 245 245 247 247 246 245 244 243 245 246 246 245 247 249 250 250 251 254 252 254 256 260 261 265 265 262 262 268 262 272 279 277 295 300
249 252 248 243 242 242 244 247 239 243 243 243 244 244 246 246 245 246 246 245 244 243 243 243 246 248 249 248 247 248 251 251 252 254 255 255 253 259 263 254 256 265 255 256 260 269 280 280 288
254 253 252 248 245 241 237 243 240 244 244 243 245 243 245 247 247 246 245 245 243 243 243 245 245 246 248 249 249 247 247 248 250 251 251 252 253 255 253 245 254 251 258 247 254 268 276 272 262
260 251 252 248 245 240 238 243 241 242 246 246 247 247 244 246 248 247 247 247 246 245 243 243 245 248 246 247 248 249 247 247 249 251 252 254 253 252 250 248 246 242 251 256 253 260 270 265 250
272 263 252 251 251 245 238 241 241 243 243 244 244 242 242 242 245 248 247 247 247 247 245 243 242 245 248 247 247 247 248 247 247 247 249 250 251 250 248 250 242 243 247 246 250 261 259 259 247
269 259 258 257 249 246 238 239 239 242 244 246 246 247 242 243 244 246 248 247 246 246 246 245 244 243 244 247 246 246 247 247 247 247 246 247 248 248 246 245 239 240 244 241 245 251 256 249 248
273 261 261 257 256 249 241 239 240 240 243 245 247 247 244 243 243 245 246 247 248 248 247 246 245 244 243 245 246 246 246 246 247 246 246 247 246 245 246 246 242 236 239 235 242 247 245 245 255
272 266 260 257 253 252 245 240 241 240 241 244 248 251 250 246 246 246 247 247 247 247 248 248 246 245 245 244 244 245 245 245 245 245 244 244 245 245 245 244 244 240 231 235 241 245 243 249 256
Height
10911 10915 10925 10932 10941 10942 10937 10934 10933 10940 10944 10948 10946 10958 10960 10969 10976 10979 10970 10976 10976 10979 10982 10983 10984 10985 10987 10988 10989 10990 10992 10992 10992 10993 10993 10993 10992 10992 10991 10991 10990 10988 10986 10983 10981 10978 10976 10972 10969
10896 10901 10910 10923 10931 10935 10927 10920 10924 10937 10943 10945 10938 10949 10956 10957 10964 10972 10958 10966 10968 10972 10975 10975 10977 10980 10981 10984 10986 10986 10987 10988 10988 10989 10990 10989 10989 10989 10988 10988 10986 10984 10982 10979 10977 10975 10972 10968 10965
10881 10890 10896 10909 10917 10925 10911 10908 10927 10934 10937 10937 10934 10937 10953 10954 10955 10960 10953 10960 10965 10967 10968 10972 10973 10975 10976 10978 10980 10983 10984 10984 10984 10985 10986 10986 10985 10985 10984 10984 10982 10980 10978 10975 10973 10971 10967 10964 10961
10868 10876 10886 10896 10904 10906 10896 10906 10921 10927 10932 10930 10926 10926 10942 10948 10950 10953 10954 10953 10959 10962 10964 10965 10968 10968 10969 10971 10974 10977 10979 10979 10978 10980 10981 10982 10982 10981 10980 10979 10978 10975 10973 10971 10969 10966 10963 10960 10956
10856 10864 10873 10884 10889 10888 10883 10898 10911 10914 10922 10923 10917 10912 10928 10938 10942 10944 10946 10943 10949 10955 10958 10959 10962 10964 10964 10965 10968 10971 10973 10975 10974 10975 10976 10976 10977 10976 10976 10975 10974 10972 10969 10967 10964 10961 10958 10956 10952
10845 10849 10864 10871 10874 10873 10872 10883 10889 10896 10907 10909 10904 10892 10919 10928 10932 10939 10934 10938 10938 10944 10949 10951 10954 10956 10959 10961 10963 10966 10967 10968 10970 10970 10970 10970 10971 10972 10971 10970 10969 10967 10964 10963 10960 10956 10953 10951 10948
10829 10836 10849 10854 10859 10862 10864 10865 10874 10876 10888 10896 10894 10880 10908 10919 10923 10926 10927 10925 10938 10934 10941 10944 10947 10950 10952 10955 10957 10959 10961 10962 10964 10965 10966 10966 10966 10967 10966 10966 10963 10961 10960 10958 10955 10951 10948 10946 10943
10809 10818 10834 10840 10844 10851 10847 10846 10857 10862 10867 10871 10883 10875 10894 10907 10918 10917 10916 10914 10933 10925 10930 10937 10940 10943 10944 10947 10949 10952 10954 10955 10956 10957 10959 10961 10962 10962 10962 10960 10958 10956 10954 10952 10949 10946 10943 10940 10937
10785 10806 10822 10820 10824 10830 10824 10829 10840 10845 10848 10850 10868 10872 10876 10888 10904 10908 10902 10902 10913 10919 10921 10925 10930 10933 10936 10938 10941 10944 10946 10948 10949 10950 10952 10955 10956 10956 10955 10954 10951 10949 10947 10944 10943 10941 10938 10934 10932
10771 10788 10796 10792 10800 10809 10807 10814 10825 10824 10830 10837 10850 10860 10853 10873 10889 10894 10884 10892 10896 10916 10911 10913 10920 10924 10927 10930 10933 10936 10938 10940 10941 10942 10944 10946 10948 10948 10948 10947 10945 10942 10942 10937 10937 10936 10932 10929 10926
10751 10773 10768 10771 10780 10787 10790 10795 10800 10800 10818 10826 10832 10846 10833 10860 10879 10882 10872 10884 10882 10905 10900 10897 10901 10910 10914 10917 10922 10926 10928 10930 10931 10933 10935 10939 10941 10942 10942 10941 10939 10935 10934 10932 10930 10930 10928 10924 10920
10737 10748 10750 10753 10759 10767 10776 10777 10782 10774 10810 10809 10818 10823 10833 10846 10865 10869 10859 10867 10873 10880 10890 10886 10887 10895 10902 10905 10910 10913 10916 10918 10920 10922 10926 10929 10933 10935 10936 10935 10933 10929 10925 10924 10924 10923 10922 10920 10916
10726 10727 10732 10736 10740 10750 10751 10758 10760 10760 10772 10795 10797 10813 10809 10829 10839 10843 10845 10851 10858 10853 10877 10879 10875 10881 10888 10892 10897 10900 10903 10906 10908 10912 10914 10919 10924 10926 10927 10926 10924 10920 10917 10916 10915 10916 10916 10913 10912
10697 10704 10714 10721 10728 10732 10735 10740 10739 10756 10741 10757 10779 10794 10789 10801 10813 10817 10826 10834 10841 10835 10856 10870 10863 10860 10873 10879 10883 10887 10890 10892 10897 10899 10902 10906 10911 10916 10916 10915 10915 10913 10909 10909 10908 10907 10906 10905 10901
10682 10695 10700 10708 10708 10713 10710 10719 10730 10728 10719 10728 10758 10766 10772 10783 10788 10794 10807 10819 10829 10822 10830 10850 10853 10846 10851 10862 10866 10874 10877 10882 10885 10888 10893 10895 10899 10903 10904 10903 10905 10905 10903 10899 10900 10902 10901 10899 10895
10665 10672 10681 10686 10686 10693 10675 10716 10716 10709 10698 10717 10728 10739 10748 10766 10769 10778 10784 10800 10815 10810 10807 10821 10837 10836 10831 10842 10853 10859 10866 10871 10874 10874 10879 10882 10886 10890 10892 10892 10894 10896 10894 10889 10890 10892 10889 10889 10888
10649 10657 10660 10662 10659 10665 10653 10701 10693 10686 10691 10702 10707 10717 10733 10742 10752 10759 10754 10770 10794 10796 10791 10798 10815 10823 10819 10817 10842 10847 10853 10859 10860 10862 10865 10867 10873 10877 10879 10881 10883 10885 10884 10880 10883 10885 10883 10882 10878
10621 10631 10634 10642 10641 10640 10639 10677 10671 10671 10678 10689 10687 10698 10712 10718 10723 10730 10730 10748 10778 10786 10775 10772 10789 10802 10802 10801 10820 10834 10834 10843 10850 10850 10852 10853 10856 10864 10868 10869 10871 10874 10872 10871 10874 10875 10874 10869 10869
10602 10607 10613 10620 10628 10615 10629 10648 10653 10660 10662 10671 10674 10681 10690 10691 10696 10703 10710 10731 10753 10761 10755 10752 10764 10781 10786 10788 10796 10810 10823 10824 10832 10838 10839 10841 10842 10849 10853 10857 10859 10862 10861 10862 10865 10864 10859 10859 10860
10577 10583 10593 10605 10597 10584 10602 10619 10632 10645 10645 10647 10647 10659 10661 10665 10674 10681 10694 10711 10731 10737 10734 10736 10745 10752 10767 10773 10777 10792 10804 10808 10814 10820 10826 10826 10831 10836 10840 10845 10848 10849 10850 10854 10853 10852 10849 10848 10851
10554 10561 10565 10570 10564 10563 10588 10599 10617 10632 10624 10617 10626 10640 10645 10653 10657 10663 10674 10690 10706 10715 10716 10717 10727 10732 10741 10752 10760 10769 10784 10792 10796 10804 10807 10811 10812 10822 10829 10832 10837 10839 10839 10842 10842 10842 10841 10838 10836
10534 10533 10536 10540 10542 10550 10564 10583 10606 10602 10596 10591 10605 10612 10625 10632 10635 10640 10655 10669 10683 10694 10696 10695 10700 10707 10717 10731 10740 10751 10766 10770 10777 10780 10789 10790 10795 10806 10814 10819 10821 10830 10830 10832 10832 10832 10830 10831 10825
10513 10506 10509 10518 10524 10535 10551 10549 10581 10564 10573 10577 10583 10589 10599 10609 10617 10624 10638 10649 10659 10668 10676 10679 10681 10682 10694 10712 10723 10732 10744 10754 10756 10765 10770 10777 10781 10788 10795 10805 10809 10815 10819 10820 10821 10820 10820 10821 10819
10489 10488 10490 10496 10503 10517 10530 10513 10546 10541 10549 10550 10560 10570 10580 10589 10596 10601 10611 10625 10636 10644 10646 10658 10663 10669 10675 10687 10700 10712 10723 10732 10740 10744 10752 10759 10764 10770 10779 10789 10795 10801 10805 10806 10806 10805 10809 10811 10808
10472 10472 10473 10479 10484 10503 10490 10485 10535 10519 10519 10530 10535 10553 10563 10565 10570 10581 10587 10595 10606 10615 10634 10637 10643 10647 10656 10663 10674 10688 10698 10707 10714 10720 10729 10738 10744 10753 10764 10773 10782 10790 10791 10788 10791 10801 10802 10799 10798
10455 10452 10457 10459 10463 10474 10477 10480 10500 10496 10506 10517 10517 10533 10548 10550 10538 10553 10568 10573 10585 10595 10610 10619 10621 10622 10632 10640 10650 10660 10673 10684 10694 10699 10710 10721 10729 10733 10743 10754 10766 10773 10776 10776 10782 10788 10788 10787 10788
10440 10440 10434 10438 10443 10452 10463 10469 10473 10480 10482 10486 10493 10507 10516 10522 10523 10527 10541 10550 10560 10568 10583 10592 10601 10603 10606 10620 10628 10639 10649 10661 10671 10680 10692 10699 10709 10715 10725 10736 10748 10756 10763 10766 10768 10774 10775 10776 10777
10423 10424 10422 10422 10430 10434 10448 10448 10458 10459 10466 10470 10476 10483 10494 10505 10508 10509 10514 10523 10535 10542 10551 10567 10578 10584 10584 10590 10604 10615 10624 10635 10646 10656 10668 10678 10687 10695 10705 10719 10729 10739 10745 10752 10756 10756 10761 10760 10764
10415 10416 10408 10408 10414 10422 10431 10438 10439 10443 10448 10451 10455 10457 10475 10481 10486 10486 10489 10498 10511 10522 10531 10537 10545 10556 10564 10568 10578 10589 10601 10612 10622 10634 10645 10656 10666 10676 10685 10696 10708 10722 10730 10735 10740 10744 10744 10744 10746
10396 10397 10396 10396 10401 10406 10412 10428 10416 10428 10428 10434 10440 10444 10454 10459 10459 10462 10472 10479 10488 10497 10503 10512 10519 10528 10537 10544 10552 10562 10575 10587 10598 10609 10621 10632 10644 10653 10664 10675 10688 10704 10714 10716 10724 10731 10731 10730 10735